This demonstration page uses our WeatherBlox Daily Observations layout. Learn more.

39.08367, -84.50855

Hourly Observations for January 18, 2020

Temp ( °F °C ) Dew Point ( °F °C ) Humidity (%) Winds ( mph kmh ) Pressure ( in mb ) Visibility ( mi km ) Precip ( " mm )
12:53 am 00:53 Cloudy 36 2.2 19 -7.2 50 50 NE 5 7 30.33 1027 10 16.0934 0 0
1:53 am 01:53 Cloudy with Light Wintry Mix 34 1.1 26 -3.3 73 73 ENE 6 9 30.28 1026 10 16.0934 0.001 0.001
2:53 am 02:53 Cloudy with Light Rain 34 1.1 27 -2.8 76 76 NE 3 6 30.26 1025 10 16.0934 0.02 0.508
3:53 am 03:53 Cloudy with Light Rain 34 1.1 28 -2.2 79 79 Calm 30.2 1023 10 16.0934 0.03 0.762
4:53 am 04:53 Cloudy with Light Rain 33 0.6 29 -1.7 85 85 Calm 30.16 1021 5 8.0467 0.1 2.54
5:53 am 05:53 Cloudy with Light Rain 34 1.1 31 -0.6 89 89 SSE 5 7 30.1 1019 10 16.0934 0.06 1.524
6:53 am 06:53 Cloudy 35 1.7 31 -0.6 85 85 S 6 9 30.06 1018 10 16.0934 0.01 0.254
7:53 am 07:53 Cloudy with Light Rain 36 2.2 32 0 86 86 S 8 13 30 1016 7 11.26538 0.02 0.508
8:53 am 08:53 Cloudy with Light Rain 37 2.8 34 1.1 89 89 SSW 7 11 29.96 1015 5 8.0467 0.05 1.27
9:44 am 09:44 Cloudy with Rain 41 5 38 3.3 89 89 S 12 19 29.94 1014 4 6.43736 0.1 2.54
9:53 am 09:53 Cloudy with Rain 41 5 39 3.9 93 93 S 14 22 29.92 1013 4 6.43736 0.12 3.048
10:46 am 10:46 Cloudy with Heavy Rain 44 6.7 42 5.6 93 93 NNW 8 13 29.95 1014 2.5 4.02335 0.11 2.794
10:53 am 10:53 Cloudy with Heavy Rain 44 6.7 42 5.6 93 93 VRB 6 9 29.95 1014 2 3.21868 0.14 3.556
11:53 am 11:53 Cloudy with Light Rain 45 7.2 44 6.7 97 97 SSW 12 19 29.92 1013 4 6.43736 0.16 4.064
12:53 pm 12:53 Cloudy with Mist and Fog 49 9.4 46 7.8 90 90 SSW 18 30 29.86 1011 4 6.43736 0.01 0.254
1:53 pm 13:53 Cloudy 51 10.6 47 8.3 86 86 SSW 23 37 29.83 1010 10 16.0934 0 0
2:53 pm 14:53 Cloudy 52 11.1 47 8.3 83 83 SW 20 31 29.82 1010 10 16.0934 0 0
3:53 pm 15:53 Cloudy 53 11.7 47 8.3 80 80 SW 18 30 29.82 1010 10 16.0934 0 0
4:11 pm 16:11 Cloudy 53 11.7 47 8.3 80 80 WNW 18 30 29.84 1011 10 16.0934 0 0
4:21 pm 16:21 Cloudy 52 11.1 44 6.7 75 75 W 21 33 29.85 1011 10 16.0934 0 0
4:53 pm 16:53 Cloudy 49 9.4 41 5 74 74 W 21 33 29.87 1012 10 16.0934 0 0
5:41 pm 17:41 Cloudy 47 8.3 39 3.9 74 74 W 18 30 29.9 1013 10 16.0934 0 0
5:53 pm 17:53 Cloudy 47 8.3 38 3.3 71 71 W 18 30 29.91 1013 10 16.0934 0 0
6:53 pm 18:53 Cloudy 45 7.2 35 1.7 68 68 W 21 33 29.92 1013 10 16.0934 0 0
7:37 pm 19:37 Cloudy 44 6.7 34 1.1 68 68 W 18 30 29.93 1014 10 16.0934 0 0
7:53 pm 19:53 Cloudy 43 6.1 33 0.6 68 68 WSW 15 24 29.93 1014 10 16.0934 0 0
8:53 pm 20:53 Cloudy 41 5 34 1.1 76 76 WNW 20 31 29.94 1014 10 16.0934 0 0
9:00 pm 21:00 Cloudy 40 4.4 33 0.6 77 77 W 21 33 29.95 1014 10 16.0934 0 0
9:53 pm 21:53 Cloudy 37 2.8 31 -0.6 79 79 W 12 19 29.97 1015 10 16.0934 0.001 0.001
10:53 pm 22:53 Cloudy 34 1.1 26 -3.3 73 73 W 17 28 30.01 1016 10 16.0934 0 0
11:00 pm 23:00 Cloudy 33 0.6 25 -3.9 72 72 W 20 31 30.03 1017 10 16.0934 0 0
11:53 pm 23:53 Cloudy 33 0.6 24 -4.4 70 70 W 18 30 30.03 1017 10 16.0934 0 0

Powered by AerisWeather